This is the latest recevied weather packets stored in our database for station/object K0CVS. If no packets are shown the sender has not sent any weather packets the latest 10 day(s).
| Time | Temp. | Humidity | Pressure | Rain* | Wind** | Luminosity | Snow |
|---|---|---|---|---|---|---|---|
| 1777663645 | 18.89° C | 33% | 1018 hPa | 0 mm | - | 139 W/m² | - |
| 1777663341 | 18.89° C | 35% | 1018.3 hPa | 0 mm | - | 325 W/m² | - |
| 1777663039 | 18.33° C | 34% | 1018.6 hPa | 0 mm | - | 740 W/m² | - |
| 1777662736 | 17.78° C | 34% | 1018.6 hPa | 0 mm | - | 735 W/m² | - |
| 1777662432 | 18.33° C | 33% | 1018.6 hPa | 0 mm | - | 83 W/m² | - |
| 1777662128 | 18.89° C | 33% | 1018.5 hPa | 0 mm | - | 128 W/m² | - |
| 1777661824 | 18.89° C | 33% | 1018.4 hPa | 0 mm | - | 672 W/m² | - |
| 1777661520 | 18.33° C | 36% | 1018.5 hPa | 0 mm | - | 805 W/m² | - |
| 1777661216 | 18.33° C | 32% | 1018.4 hPa | 0 mm | - | 246 W/m² | - |
| 1777660916 | 17.78° C | 33% | 1018.6 hPa | 0 mm | - | 253 W/m² | - |
| 1777660613 | 17.78° C | 33% | 1018.5 hPa | 0 mm | - | 935 W/m² | - |
| 1777660310 | 17.78° C | 35% | 1018.7 hPa | 0 mm | - | 172 W/m² | - |
| 1777660007 | 18.33° C | 31% | 1018.7 hPa | 0 mm | - | 275 W/m² | - |
| 1777659703 | 18.33° C | 31% | 1018.9 hPa | 0 mm | - | 781 W/m² | - |
| 1777659400 | 18.33° C | 33% | 1018.7 hPa | 0 mm | - | 780 W/m² | - |
| 1777659097 | 18.89° C | 33% | 1018.9 hPa | 0 mm | - | 789 W/m² | - |
| 1777658796 | 18.89° C | 31% | 1019 hPa | 0 mm | - | 796 W/m² | - |
| 1777658491 | 18.33° C | 33% | 1018.7 hPa | 0 mm | - | 775 W/m² | - |
| 1777658188 | 18.33° C | 36% | 1019 hPa | 0 mm | - | 764 W/m² | - |
| 1777657885 | 18.33° C | 33% | 1018.8 hPa | 0 mm | - | 755 W/m² | - |
| 1777657582 | 17.78° C | 34% | 1019 hPa | 0 mm | - | 746 W/m² | - |
| 1777657280 | 18.33° C | 31% | 1019.2 hPa | 0 mm | - | 752 W/m² | - |
| 1777656977 | 17.78° C | 33% | 1019 hPa | 0 mm | - | 597 W/m² | - |
| 1777656674 | 17.78° C | 30% | 1019.1 hPa | 0 mm | - | 743 W/m² | - |
| 1777656369 | 17.78° C | 34% | 1019.1 hPa | 0 mm | - | 740 W/m² | - |
* Rain latest hour (hover to see other rain measurements)
** Current wind speed in m/s (hover to see current wind gust speed)